[sarex] 2 Line ISS Keps 5-5

Dave Larsen PhD doc at volcano.net
Fri May 4 19:53:39 PDT 2007


ISS
1 25544U 98067A   07124.68270509  .00017885  00000-0  10856-3 0  1434
2 25544 051.6339 328.6632 0010664 143.6648 302.9204 15.77550218483903


More information about the SAREX mailing list